{"data":{"norad_id":59724,"intl_designator":"2024-088S","name":"STARLINK-31836","alt_names":[],"object_type":"PAYLOAD","status":"ACTIVE","operator":null,"country":"US","launch_date":"2024-05-10","launch_site_code":"AFWTR","launch_vehicle":null,"mission":null,"orbit_class":"UNKNOWN","rcs_meters":null,"size_class":null,"mass_kg":null,"dimensions":null,"purposes":["comms"],"wikipedia_slug":null,"has_3d_model":false,"image_url":null,"decayed_at":null,"tle_current":{"epoch":"2026-05-24T23:14:53.589120Z","epoch_age_seconds":81761,"freshness":"FRESH","line1":"1 59724U 24088S   26144.96867580  .00001582  00000+0  62698-4 0  9995","line2":"2 59724  53.1600 145.4043 0000952  69.2440 290.8664 15.31710149115369","mean_motion":15.31710149,"eccentricity":9.52e-5,"inclination_deg":53.16,"raan_deg":145.4043,"arg_perigee_deg":69.244,"mean_anomaly_deg":290.8664,"bstar":6.2698e-5,"rev_number":11536,"period_min":94.012565036546,"perigee_km":470.05773154199,"apogee_km":471.36175196162,"semimajor_km":6848.8467417518,"source":"CELESTRAK","updated_at":"2026-05-25T13:38:19.049288Z"}}}